ONEWEB-0102 (47258 NORAD) Tracking and Keplerian Element Data

This shows tracking and keplerian element data for the satellite.

Feedback or suggestion? Click here.




ElementValue
Catalog47258
NameONEWEB-0102
Epoch Orbit175
Epoch Day101.91668981
Epoch Year2021
RAAN6.9511
Inclination87.9611
Eccentricity0.0001405
Argument of Perigee95.3123
Mean Anonmoly173.885
Mean Motion13.29256743
Decay Rate-0.00037245
L11 47258U 20100A 21101.91668981 -.00037245 00000-0 -81061-1 0 9992
L22 47258 87.9611 6.9511 0001405 95.3123 173.8850 13.29256743 1752

Live tracking and technical data element details for ONEWEB-0102 (NORAD 47258). ONEWEB-0102 can be tracked NOW for your location showing map with azimuth and elevation plus other details from your city location.

Track the satellite on the map from your city or location and see movement details for azimuth, elevation, latitude, longitude, range, height, and movement on the map or in text.







IsCatalogInMostPopularTable: catalog: 47258, numindb: 35
Update: records affected: 1



GetName: 47258 ONEWEB-0102

Hit Count: updated at: Tue, 13 Apr 2021 05:26:00 GMT